Location: Rounton
(54.4000°N, 1.3500°W)
Time: 09:55:42
(UTC+00:00)

Vanguard 1 Rocket - Visible Passes

Search period start: 22 February 2024 00:00
Search period end: 03 March 2024 00:00
Orbit: 654 x 4218 km, 34.3° (Epoch: 21 February)

Date Brightness Start Highest point End Pass type
(mag) Time Alt. Az. Time Alt. Az. Time Alt. Az.
24 Feb 11.9 05:38:20 10° SSE 05:41:15 11° SSE 05:43:57 10° SE visible
26 Feb 11.7 05:32:44 10° S 05:42:20 15° SSE 05:49:55 10° ESE visible
27 Feb 11.9 04:27:06 10° SSE 04:29:41 10° SE 04:32:08 10° SE visible
28 Feb 11.6 05:30:02 10° S 05:43:21 20° SSE 05:53:11 10° ESE visible
29 Feb 11.8 04:20:10 10° S 04:30:32 15° SE 04:39:04 10° ESE visible
01 Mar 11.4 05:28:16 10° SSW 05:44:18 24° SSE 05:55:41 10° ESE visible
02 Mar 11.6 04:17:00 10° S 04:31:17 20° SE 04:42:31 10° ESE visible
